This is the latest recevied weather packets stored in our database for station/object WA1NHP. If no packets are shown the sender has not sent any weather packets the latest 10 day(s).
| Time | Temp. | Humidity | Pressure | Rain* | Wind** | Luminosity | Snow |
|---|---|---|---|---|---|---|---|
| 1778103244 | 13.89° C | 96% | 1023.9 hPa | 0 mm | - | 19 W/m² | - |
| 1778102644 | 13.89° C | 96% | 1023.9 hPa | 0 mm | - | 21 W/m² | - |
| 1778102044 | 13.89° C | 96% | 1023.9 hPa | 0 mm | - | 63 W/m² | - |
| 1778101444 | 14.44° C | 96% | 1023.9 hPa | 0 mm | - | 62 W/m² | - |
| 1778100844 | 14.44° C | 96% | 1023.9 hPa | 0 mm | - | 70 W/m² | - |
| 1778100244 | 14.44° C | 96% | 1023.9 hPa | 0.25 mm | - | 81 W/m² | - |
| 1778099644 | 14.44° C | 96% | 1023.9 hPa | 0.51 mm | - | 105 W/m² | - |
| 1778099044 | 14.44° C | 96% | 1023.9 hPa | 0.76 mm | - | 70 W/m² | - |
| 1778098444 | 14.44° C | 96% | 1023.9 hPa | 1.27 mm | - | 67 W/m² | - |
| 1778097843 | 14.44° C | 96% | 1023.9 hPa | 1.52 mm | - | 54 W/m² | - |
| 1778097243 | 14.44° C | 96% | 1023.9 hPa | 1.78 mm | - | 25 W/m² | - |
| 1778096644 | 14.44° C | 96% | 1023.9 hPa | 1.52 mm | - | 23 W/m² | - |
| 1778096044 | 14.44° C | 96% | 1023.9 hPa | 1.52 mm | - | 23 W/m² | - |
| 1778095444 | 14.44° C | 96% | 1023.9 hPa | 1.27 mm | - | 70 W/m² | - |
| 1778094843 | 14.44° C | 96% | 1023.9 hPa | 1.02 mm | - | 56 W/m² | - |
| 1778094243 | 14.44° C | 95% | 1023.9 hPa | 1.02 mm | - | 62 W/m² | - |
| 1778093644 | 14.44° C | 95% | 1023.9 hPa | 1.02 mm | - | 83 W/m² | - |
| 1778093043 | 15° C | 95% | 1023.9 hPa | 1.27 mm | - | 51 W/m² | - |
| 1778092444 | 15° C | 95% | 1023.9 hPa | 1.52 mm | - | 135 W/m² | - |
| 1778091844 | 15° C | 95% | 1023.9 hPa | 1.78 mm | - | 104 W/m² | - |
| 1778091244 | 15° C | 95% | 1023.9 hPa | 2.03 mm | - | 111 W/m² | - |
| 1778090644 | 15° C | 94% | 1023.9 hPa | 2.03 mm | - | 100 W/m² | - |
| 1778090044 | 15° C | 94% | 1023.9 hPa | 2.03 mm | - | 107 W/m² | - |
| 1778089444 | 15° C | 94% | 1023.9 hPa | 1.78 mm | - | 95 W/m² | - |
| 1778088844 | 15° C | 93% | 1023.9 hPa | 1.27 mm | - | 113 W/m² | - |
* Rain latest hour (hover to see other rain measurements)
** Current wind speed in m/s (hover to see current wind gust speed)